Tracking 20753 objects as of 7-Jun-2020
HD Live streaming from Space Station
objects crossing your sky now
Track the most recent launched group of Starlink satellites

THORAD AGENA D DEB

Track THORAD AGENA D DEB now!
10-day predictions


NORAD ID: 4205
Int'l Code: 1969-082BU
Perigee: 761.9 km
Apogee: 860.4 km
Inclination: 70.1 °
Period: 101.0 minutes
Semi major axis: 7182 km
RCS: 0.0519 m2 (small)
Launch date: September 30, 1969
Source: United States (US)
Launch site: AIR FORCE WESTERN TEST RANGE (AFWTR)

Note: This is SATELLITE DEBRIS
aabbcc
Your satellite tracking list
Your tracking list is empty




NASA's NSSDC Master Catalog

Two Line Element Set (TLE):
1  4205U 69082BU  20158.91357637 +.00000167 +00000-0 +90797-4 0  9993
2  4205 070.0610 025.1944 0068638 323.4433 036.2013 14.26333907787370
Source of the keplerian elements: AFSPC